Terminal Aerodrome Forecast
Issued by NWS

Current Version | Previous Version | Graphics & Text | Print | Product List | Glossary On
Versions: 1 2 3 4 5 6 7 8 9 10 11 12 13 14 15 16 17 18
000
FTUS41 KILN 191100
TAFLUK
TAF
KLUK 191121Z 1912/2012 34003KT P6SM BKN035
     FM191400 24003KT P6SM SCT030
     FM200000 19004KT P6SM BKN200
     FM201000 20004KT P6SM VCSH SCT050 BKN100=

USA.gov is the U.S. government's official web portal to all federal, state and local government web resources and services.